Location: Alsip
(41.6689°N, 87.7387°W)
Time: 12:43:33
(UTC+00:00)

STARLINK-2707 - Visible Passes

Search period start: 06 December 2021 00:00
Search period end: 16 December 2021 00:00
Orbit: 545 x 549 km, 53.1° (Epoch: 06 December)

Date Brightness Start Highest point End Pass type
(mag) Time Alt. Az. Time Alt. Az. Time Alt. Az.
06 Dec 5.5 00:11:19 10° NW 00:13:49 18° N 00:13:49 18° N visible
07 Dec 5.4 00:05:03 10° NW 00:07:50 19° N 00:07:50 19° N visible
07 Dec 5.2 23:58:47 10° NW 00:01:55 21° NNE 00:01:55 21° NNE visible
08 Dec 5.0 23:52:32 10° NW 23:55:53 23° NNE 23:56:06 23° NNE visible
09 Dec 4.7 23:46:17 10° NW 23:49:49 26° NNE 23:50:25 25° NE visible
10 Dec 6.5 01:25:33 10° NW 01:26:02 13° NW 01:26:02 13° NW visible
10 Dec 4.5 23:40:03 10° NW 23:43:46 31° NNE 23:44:52 27° NE visible
11 Dec 6.2 01:19:27 10° WNW 01:20:31 17° WNW 01:20:31 17° WNW visible
11 Dec 4.2 23:33:52 10° NW 23:37:44 37° NNE 23:39:32 24° ENE visible
12 Dec 5.9 01:13:24 10° WNW 01:15:11 23° WNW 01:15:11 23° WNW visible
12 Dec 3.9 23:27:43 10° NW 23:31:42 45° NNE 23:34:27 18° E visible
13 Dec 5.6 01:07:29 10° WNW 01:10:07 27° WSW 01:10:07 27° WSW visible
13 Dec 3.7 23:21:36 10° NW 23:25:41 57° NNE 23:29:43 10° ESE visible
14 Dec 5.8 01:01:42 10° WNW 01:04:56 22° SW 01:05:24 22° SW visible
14 Dec 3.5 23:15:33 10° NW 23:19:40 75° NE 23:23:47 10° ESE visible
15 Dec 6.4 00:56:08 10° W 00:58:46 17° SW 01:01:13 11° SSW visible
15 Dec 3.7 23:09:33 10° NW 23:13:41 84° SW 23:17:48 10° SE visible
